SCP
0 0 0 0 0 0 0 0 0 0 0 0 0 0 0 0 0 0 0 0 0 0 0 0 0 0 0 0 0 0 0 0 0
0 0 0 0 0 0 0 0 0 0 0 0 0 0 0 0 0 0 0 0 0 0 0 0 0 0 0 0 0 0 0 0 0
0 0 0 0 0 0 0 0 0 0 0 0 0 0 0 0 0 0 0 0 0 0 0 0 0 0 0 0 0 0 0 0 0
0 0 0 0 0 0 0 0 0 0 0 0 0 0 0 0 0 0 -0 -0 0 0 0 0 0 0 0 0 0 0 0 0 0
0 0 0 0 0 0 0 0 0 0 0 0 0 0 -0 -0 -0 -0 0 -0 -0 0 0 0 0 0 0 0 0 0 0 0 0
0 0 0 0 0 0 0 0 0 0 0 0 -0 0 0 0 0 0 0 0 0 0 0 0 0 0 0 0 0 0 0 0 0
0 0 0 0 0 0 0 0 0 0 0 0 0 0 0 0 0 0 0 0 0 0 0 0 0 0 0 0 -0 0 0 0 0
0 0 0 0 0 0 0 0 0 0 0 0 -0 -0 0 0 0 0 0 0 0 0 0 0 0 0 0 0 0 0 0 0 0
0 0 0 0 0 0 0 0 0 0 0 0 0 0 0 0 0 0 0 0 0 0 0 0 0 0 0 0 0 0 0 0 1
0 0 0 0 0 0 0 0 0 0 0 0 0 0 0 0 0 0 0 0 0 0 0 0 0 0 0 0 0 0 0 0 1
0 0 0 0 0 0 0 0 0 0 0 0 0 0 0 0 0 0 0 0 0 0 0 0 0 0 0 0 0 0 0 1 1
0 0 0 0 0 0 0 0 0 0 0 0 0 0 0 0 0 0 0 0 0 0 0 0 0 0 0 0 0 0 0 0 1
0 0 0 0 0 0 0 0 0 0 0 0 0 0 0 0 0 0 0 0 0 0 0 0 0 0 0 0 0 0 0 1 0
0 0 0 0 0 0 0 0 0 0 0 -0 0 0 -0 0 0 0 0 0 0 0 0 0 0 0 0 0 0 0 0 0 0
0 0 0 0 0 0 0 0 0 0 0 0 0 0 0 0 0 0 0 0 0 0 0 0 0 -0 -0 0 -0 -0 -0 -0 -0
0 0 0 0 0 0 0 0 0 0 0 -0 0 0 0 0 0 0 0 0 0 0 0 0 0 0 -0 -0 -0 -0 -0 -0 -0
0 0 0 0 0 0 0 0 0 0 -0 -0 -0 0 0 0 0 0 0 0 0 0 0 0 0 0 0 0 0 -0 0 0 0
0 0 0 0 0 0 0 0 0 0 -0 -0 -0 0 0 -0 0 0 0 0 0 0 0 0 0 0 0 0 0 0 0 -0 0
0 0 0 0 0 0 0 0 0 0 -0 0 0 0 0 0 0 0 0 0 0 0 0 0 0 0 -0 0 0 0 0 0 0
0 0 0 0 0 0 0 0 0 0 0 0 0 0 0 0 0 0 0 0 0 0 0 0 0 -0 -0 -0 0 -0 0 -0 -0
Wind_Speed_500mb
30 29 27 27 26 27 28 29 29 31 33 33 34 34 30 29 30 29 26 23 26 37 36 31 30 28 28 30 31 32 32 34 28
25 24 23 23 24 25 26 28 29 30 31 33 35 36 37 37 33 28 26 30 30 38 42 35 35 34 30 35 39 40 40 36 32
23 21 20 20 20 20 21 23 25 27 30 32 34 35 35 37 39 37 28 28 37 41 44 45 40 40 40 40 41 39 39 41 39
22 22 20 20 19 19 19 20 21 22 23 25 28 32 33 35 34 35 36 29 37 46 46 46 45 46 47 48 47 46 46 46 45
26 22 24 23 20 19 18 18 18 17 18 19 20 22 23 28 28 24 17 29 36 43 47 48 49 50 53 54 54 52 50 49 47
22 19 20 21 21 19 19 18 18 16 16 16 16 15 13 12 14 21 31 39 40 41 50 50 48 50 56 59 60 59 58 57 53
22 24 22 18 19 20 19 18 17 18 19 18 17 18 19 20 19 20 24 38 47 54 58 60 62 58 59 58 64 66 65 63 61
19 18 23 21 20 19 19 18 19 21 21 21 22 22 23 23 21 22 26 33 35 39 45 52 58 68 76 68 67 66 72 69 67
19 16 19 21 21 19 21 21 23 24 24 24 25 25 25 24 23 24 25 30 33 35 40 46 50 55 60 74 84 74 66 74 73
20 18 19 21 24 25 24 25 25 26 25 23 26 25 26 27 26 26 29 32 40 44 45 45 47 52 57 63 70 82 79 68 77
22 20 19 22 27 26 25 27 27 27 26 25 24 26 26 27 27 26 30 37 43 43 46 48 47 48 50 55 61 68 79 78 70
25 23 22 25 27 27 26 27 28 28 28 27 26 26 21 23 21 24 30 38 40 41 40 43 45 46 47 48 52 58 67 78 64
26 26 25 28 29 28 28 30 31 30 31 30 30 28 19 17 18 21 30 36 37 38 39 39 41 45 49 48 48 48 52 56 78
28 28 28 30 30 29 30 31 32 34 32 35 35 25 22 9 13 19 27 37 28 37 41 38 36 37 41 40 45 45 47 46 62
30 30 30 31 32 31 31 33 31 32 34 38 34 25 7 10 10 19 26 37 42 40 47 43 36 33 45 39 42 46 49 46 50
31 31 30 30 31 32 30 33 35 30 30 40 41 15 2 13 17 15 28 37 44 45 43 48 47 32 29 23 31 37 42 36 39
32 32 31 30 31 29 28 31 35 30 26 29 33 23 7 10 4 8 16 32 44 38 42 40 39 37 31 24 24 20 12 10 10
33 32 31 30 30 30 30 30 32 34 24 16 14 13 10 44 4 15 21 22 34 41 37 37 30 34 26 30 32 22 14 10 6
32 31 31 30 29 29 29 29 31 31 30 23 7 16 22 16 28 24 42 27 26 30 37 36 33 21 27 27 24 29 36 7 5
30 32 32 30 28 28 29 30 30 29 29 25 26 25 21 20 29 37 45 47 36 24 35 31 34 33 21 24 29 26 30 38 28
Wind_Direction_500mb
312 307 301 298 293 287 283 280 276 274 272 269 266 266 272 272 276 278 272 256 252 262 274 269 259 248 236 244 255 262 267 279 270
326 320 316 309 303 296 293 289 285 280 276 273 269 266 263 263 266 269 267 276 267 265 275 269 261 254 248 245 252 260 270 271 268
330 331 328 324 318 312 306 301 296 291 285 279 275 273 268 263 263 262 261 263 269 269 261 269 265 256 251 248 251 253 257 267 268
343 345 342 334 328 321 317 312 305 301 299 293 284 279 275 272 268 266 264 254 264 269 271 270 265 262 258 256 256 255 257 258 263
355 353 347 340 338 336 334 329 326 322 316 309 305 301 295 283 277 271 285 278 274 266 268 266 266 263 262 259 257 257 253 255 257
344 347 342 347 348 350 352 350 342 339 325 320 326 319 312 295 274 254 248 253 258 256 255 259 262 264 264 262 258 255 254 252 251
353 353 353 354 357 354 355 354 344 343 340 332 327 322 313 302 293 279 263 259 258 262 263 260 257 260 259 261 261 257 253 251 249
347 349 340 351 351 346 346 344 336 335 334 330 325 316 314 310 303 294 285 284 285 282 276 272 267 260 257 259 258 259 254 250 248
344 339 340 338 340 342 340 338 335 333 333 329 324 320 315 311 307 305 304 303 306 301 295 289 282 275 266 260 257 254 255 251 246
354 352 345 340 340 341 343 342 342 341 341 338 334 334 333 331 329 327 329 325 320 316 312 304 293 282 275 268 262 256 250 250 247
355 352 349 341 344 344 346 346 344 341 339 337 334 326 325 324 319 331 331 332 328 323 322 317 307 292 285 279 271 264 256 246 249
354 354 350 344 346 347 347 345 343 338 335 335 331 323 321 322 317 331 337 324 323 321 321 326 319 310 299 293 283 272 261 246 255
351 349 344 341 343 344 343 342 340 338 337 335 333 328 323 316 311 344 315 328 328 330 324 316 316 314 308 297 292 275 261 252 250
343 342 337 335 337 339 336 336 339 338 337 332 334 328 320 313 319 313 329 348 345 345 333 318 314 313 313 299 292 278 264 266 260
335 334 332 330 332 332 331 331 337 339 334 332 337 337 36 325 333 317 344 355 359 359 4 3 349 340 324 300 286 280 258 251 245
332 329 329 327 326 327 327 324 329 339 337 333 340 1 247 262 352 340 341 351 355 356 1 6 13 7 2 330 321 294 265 252 239
334 332 329 327 325 325 324 323 325 334 348 346 346 353 64 234 273 357 357 351 344 352 359 5 16 28 15 349 321 347 65 70 216
336 337 334 332 329 327 325 324 324 328 338 344 347 338 325 328 219 318 352 337 348 345 348 352 0 4 9 21 9 354 306 316 310
338 339 336 333 329 327 325 322 318 320 325 330 275 267 291 310 320 313 325 320 338 340 338 349 342 4 1 3 5 359 45 60 55
339 341 339 338 334 330 326 323 320 318 313 313 311 306 298 292 299 311 309 319 335 336 324 344 348 345 346 351 355 6 348 11 37
Wind_Speed_850mb
30 29 27 27 26 27 28 29 29 31 33 33 34 34 30 29 30 29 26 23 26 37 36 31 30 28 28 30 31 32 32 34 28
25 24 23 23 24 25 26 28 29 30 31 33 35 36 37 37 33 28 26 30 30 38 42 35 35 34 30 35 39 40 40 36 32
23 21 20 20 20 20 21 23 25 27 30 32 34 35 35 37 39 37 28 28 37 41 44 45 40 40 40 40 41 39 39 41 39
22 22 20 20 19 19 19 20 21 22 23 25 28 32 33 35 34 35 36 29 37 46 46 46 45 46 47 48 47 46 46 46 45
26 22 24 23 20 19 18 18 18 17 18 19 20 22 23 28 28 24 17 29 36 43 47 48 49 50 53 54 54 52 50 49 47
22 19 20 21 21 19 19 18 18 16 16 16 16 15 13 12 14 21 31 39 40 41 50 50 48 50 56 59 60 59 58 57 53
22 24 22 18 19 20 19 18 17 18 19 18 17 18 19 20 19 20 24 38 47 54 58 60 62 58 59 58 64 66 65 63 61
19 18 23 21 20 19 19 18 19 21 21 21 22 22 23 23 21 22 26 33 35 39 45 52 58 68 76 68 67 66 72 69 67
19 16 19 21 21 19 21 21 23 24 24 24 25 25 25 24 23 24 25 30 33 35 40 46 50 55 60 74 84 74 66 74 73
20 18 19 21 24 25 24 25 25 26 25 23 26 25 26 27 26 26 29 32 40 44 45 45 47 52 57 63 70 82 79 68 77
22 20 19 22 27 26 25 27 27 27 26 25 24 26 26 27 27 26 30 37 43 43 46 48 47 48 50 55 61 68 79 78 70
25 23 22 25 27 27 26 27 28 28 28 27 26 26 21 23 21 24 30 38 40 41 40 43 45 46 47 48 52 58 67 78 64
26 26 25 28 29 28 28 30 31 30 31 30 30 28 19 17 18 21 30 36 37 38 39 39 41 45 49 48 48 48 52 56 78
28 28 28 30 30 29 30 31 32 34 32 35 35 25 22 9 13 19 27 37 28 37 41 38 36 37 41 40 45 45 47 46 62
30 30 30 31 32 31 31 33 31 32 34 38 34 25 7 10 10 19 26 37 42 40 47 43 36 33 45 39 42 46 49 46 50
31 31 30 30 31 32 30 33 35 30 30 40 41 15 2 13 17 15 28 37 44 45 43 48 47 32 29 23 31 37 42 36 39
32 32 31 30 31 29 28 31 35 30 26 29 33 23 7 10 4 8 16 32 44 38 42 40 39 37 31 24 24 20 12 10 10
33 32 31 30 30 30 30 30 32 34 24 16 14 13 10 44 4 15 21 22 34 41 37 37 30 34 26 30 32 22 14 10 6
32 31 31 30 29 29 29 29 31 31 30 23 7 16 22 16 28 24 42 27 26 30 37 36 33 21 27 27 24 29 36 7 5
30 32 32 30 28 28 29 30 30 29 29 25 26 25 21 20 29 37 45 47 36 24 35 31 34 33 21 24 29 26 30 38 28
Wind_Direction_850mb
312 307 301 298 293 287 283 280 276 274 272 269 266 266 272 272 276 278 272 256 252 262 274 269 259 248 236 244 255 262 267 279 270
326 320 316 309 303 296 293 289 285 280 276 273 269 266 263 263 266 269 267 276 267 265 275 269 261 254 248 245 252 260 270 271 268
330 331 328 324 318 312 306 301 296 291 285 279 275 273 268 263 263 262 261 263 269 269 261 269 265 256 251 248 251 253 257 267 268
343 345 342 334 328 321 317 312 305 301 299 293 284 279 275 272 268 266 264 254 264 269 271 270 265 262 258 256 256 255 257 258 263
355 353 347 340 338 336 334 329 326 322 316 309 305 301 295 283 277 271 285 278 274 266 268 266 266 263 262 259 257 257 253 255 257
344 347 342 347 348 350 352 350 342 339 325 320 326 319 312 295 274 254 248 253 258 256 255 259 262 264 264 262 258 255 254 252 251
353 353 353 354 357 354 355 354 344 343 340 332 327 322 313 302 293 279 263 259 258 262 263 260 257 260 259 261 261 257 253 251 249
347 349 340 351 351 346 346 344 336 335 334 330 325 316 314 310 303 294 285 284 285 282 276 272 267 260 257 259 258 259 254 250 248
344 339 340 338 340 342 340 338 335 333 333 329 324 320 315 311 307 305 304 303 306 301 295 289 282 275 266 260 257 254 255 251 246
354 352 345 340 340 341 343 342 342 341 341 338 334 334 333 331 329 327 329 325 320 316 312 304 293 282 275 268 262 256 250 250 247
355 352 349 341 344 344 346 346 344 341 339 337 334 326 325 324 319 331 331 332 328 323 322 317 307 292 285 279 271 264 256 246 249
354 354 350 344 346 347 347 345 343 338 335 335 331 323 321 322 317 331 337 324 323 321 321 326 319 310 299 293 283 272 261 246 255
351 349 344 341 343 344 343 342 340 338 337 335 333 328 323 316 311 344 315 328 328 330 324 316 316 314 308 297 292 275 261 252 250
343 342 337 335 337 339 336 336 339 338 337 332 334 328 320 313 319 313 329 348 345 345 333 318 314 313 313 299 292 278 264 266 260
335 334 332 330 332 332 331 331 337 339 334 332 337 337 36 325 333 317 344 355 359 359 4 3 349 340 324 300 286 280 258 251 245
332 329 329 327 326 327 327 324 329 339 337 333 340 1 247 262 352 340 341 351 355 356 1 6 13 7 2 330 321 294 265 252 239
334 332 329 327 325 325 324 323 325 334 348 346 346 353 64 234 273 357 357 351 344 352 359 5 16 28 15 349 321 347 65 70 216
336 337 334 332 329 327 325 324 324 328 338 344 347 338 325 328 219 318 352 337 348 345 348 352 0 4 9 21 9 354 306 316 310
338 339 336 333 329 327 325 322 318 320 325 330 275 267 291 310 320 313 325 320 338 340 338 349 342 4 1 3 5 359 45 60 55
339 341 339 338 334 330 326 323 320 318 313 313 311 306 298 292 299 311 309 319 335 336 324 344 348 345 346 351 355 6 348 11 37